Year,Month,Day,Hour,Minute,Value (Times are PST for temperature in C)
2016,07,28,00,00,17.70
2016,07,28,00,01,17.60
2016,07,28,00,02,17.60
2016,07,28,00,03,17.60
2016,07,28,00,04,17.60
2016,07,28,00,05,17.50
2016,07,28,00,06,17.50
2016,07,28,00,07,17.50
2016,07,28,00,08,17.40
2016,07,28,00,09,17.40
2016,07,28,00,10,17.40
2016,07,28,00,11,17.40
2016,07,28,00,12,17.30
2016,07,28,00,13,17.30
2016,07,28,00,14,17.30
2016,07,28,00,15,17.30
2016,07,28,00,16,17.30
2016,07,28,00,17,17.30
2016,07,28,00,18,17.20
2016,07,28,00,19,17.20
2016,07,28,00,20,17.20
2016,07,28,00,21,17.20
2016,07,28,00,22,17.20
2016,07,28,00,23,17.20
2016,07,28,00,24,17.10
2016,07,28,00,25,17.10
2016,07,28,00,26,17.10
2016,07,28,00,27,17.10
2016,07,28,00,28,17.10
2016,07,28,00,29,17.00
2016,07,28,00,30,17.00
2016,07,28,00,31,17.00
2016,07,28,00,32,16.90
2016,07,28,00,33,16.90
2016,07,28,00,34,16.90
2016,07,28,00,35,16.90
2016,07,28,00,36,16.90
2016,07,28,00,37,16.80
2016,07,28,00,38,16.80
2016,07,28,00,39,16.80
2016,07,28,00,40,16.80
2016,07,28,00,41,16.80
2016,07,28,00,42,16.80
2016,07,28,00,43,16.70
2016,07,28,00,44,16.70
2016,07,28,00,45,16.70
2016,07,28,00,46,16.70
2016,07,28,00,47,16.70
2016,07,28,00,48,16.70
2016,07,28,00,49,16.70
2016,07,28,00,50,16.60
2016,07,28,00,51,16.60
2016,07,28,00,52,16.60
2016,07,28,00,53,16.60
2016,07,28,00,54,16.60
2016,07,28,00,55,16.60
2016,07,28,00,56,16.50
2016,07,28,00,57,16.50
2016,07,28,00,58,16.50
2016,07,28,00,59,16.50
2016,07,28,01,00,16.40
2016,07,28,01,01,16.40
2016,07,28,01,02,16.40
2016,07,28,01,03,16.40
2016,07,28,01,04,16.40
2016,07,28,01,05,16.30
2016,07,28,01,06,16.30
2016,07,28,01,07,16.30
2016,07,28,01,08,16.30
2016,07,28,01,09,16.30
2016,07,28,01,10,16.30
2016,07,28,01,11,16.30
2016,07,28,01,12,16.20
2016,07,28,01,13,16.20
2016,07,28,01,14,16.20
2016,07,28,01,15,16.20
2016,07,28,01,16,16.20
2016,07,28,01,17,16.20
2016,07,28,01,18,16.20
2016,07,28,01,19,16.20
2016,07,28,01,20,16.20
2016,07,28,01,21,16.10
2016,07,28,01,22,16.10
2016,07,28,01,23,16.10
2016,07,28,01,24,16.10
2016,07,28,01,25,16.10
2016,07,28,01,26,16.10
2016,07,28,01,27,16.10
2016,07,28,01,28,16.10
2016,07,28,01,29,16.10
2016,07,28,01,30,16.10
2016,07,28,01,31,16.10
2016,07,28,01,32,16.10
2016,07,28,01,33,16.10
2016,07,28,01,34,16.20
2016,07,28,01,35,16.20
2016,07,28,01,36,16.20
2016,07,28,01,37,16.20
2016,07,28,01,38,16.20
2016,07,28,01,39,16.20
2016,07,28,01,40,16.20
2016,07,28,01,41,16.20
2016,07,28,01,42,16.20
2016,07,28,01,43,16.20
2016,07,28,01,44,16.20
2016,07,28,01,45,16.20
2016,07,28,01,46,16.30
2016,07,28,01,47,16.30
2016,07,28,01,48,16.40
2016,07,28,01,49,16.50
2016,07,28,01,50,16.60
2016,07,28,01,51,16.70
2016,07,28,01,52,16.70
2016,07,28,01,53,16.80
2016,07,28,01,54,16.90
2016,07,28,01,55,16.90
2016,07,28,01,56,16.90
2016,07,28,01,57,17.00
2016,07,28,01,58,17.00
2016,07,28,01,59,17.10
2016,07,28,02,00,17.10
2016,07,28,02,01,17.20
2016,07,28,02,02,17.20
2016,07,28,02,03,17.20
2016,07,28,02,04,17.20
2016,07,28,02,05,17.20
2016,07,28,02,06,17.20
2016,07,28,02,07,17.20
2016,07,28,02,08,17.20
2016,07,28,02,09,17.10
2016,07,28,02,10,17.10
2016,07,28,02,11,17.00
2016,07,28,02,12,16.90
2016,07,28,02,13,16.90
2016,07,28,02,14,16.80
2016,07,28,02,15,16.80
2016,07,28,02,16,16.70
2016,07,28,02,17,16.70
2016,07,28,02,18,16.70
2016,07,28,02,19,16.70
2016,07,28,02,20,16.70
2016,07,28,02,21,16.70
2016,07,28,02,22,16.70
2016,07,28,02,23,16.70
2016,07,28,02,24,16.70
2016,07,28,02,25,16.70
2016,07,28,02,26,16.70
2016,07,28,02,27,16.70
2016,07,28,02,28,16.70
2016,07,28,02,29,16.80
2016,07,28,02,30,16.80
2016,07,28,02,31,16.80
2016,07,28,02,32,16.80
2016,07,28,02,33,16.80
2016,07,28,02,34,16.90
2016,07,28,02,35,16.90
2016,07,28,02,36,16.90
2016,07,28,02,37,16.90
2016,07,28,02,38,16.90
2016,07,28,02,39,17.00
2016,07,28,02,40,17.00
2016,07,28,02,41,17.00
2016,07,28,02,42,17.00
2016,07,28,02,43,17.00
2016,07,28,02,44,17.00
2016,07,28,02,45,17.00
2016,07,28,02,46,17.10
2016,07,28,02,47,17.10
2016,07,28,02,48,17.10
2016,07,28,02,49,17.10
2016,07,28,02,50,17.10
2016,07,28,02,51,17.10
2016,07,28,02,52,17.00
2016,07,28,02,53,17.00
2016,07,28,02,54,17.00
2016,07,28,02,55,16.90
2016,07,28,02,56,16.90
2016,07,28,02,57,16.90
2016,07,28,02,58,16.80
2016,07,28,02,59,16.80
2016,07,28,03,00,16.80
2016,07,28,03,01,16.80
2016,07,28,03,02,16.80
2016,07,28,03,03,16.80
2016,07,28,03,04,16.80
2016,07,28,03,05,16.90
2016,07,28,03,06,16.90
2016,07,28,03,07,16.90
2016,07,28,03,08,16.90
2016,07,28,03,09,16.90
2016,07,28,03,10,16.90
2016,07,28,03,11,16.90
2016,07,28,03,12,16.90
2016,07,28,03,13,16.90
2016,07,28,03,14,16.90
2016,07,28,03,15,16.90
2016,07,28,03,16,17.00
2016,07,28,03,17,17.00
2016,07,28,03,18,17.00
2016,07,28,03,19,17.00
2016,07,28,03,20,17.00
2016,07,28,03,21,17.00
2016,07,28,03,22,16.90
2016,07,28,03,23,16.90
2016,07,28,03,24,16.90
2016,07,28,03,25,16.90
2016,07,28,03,26,16.90
2016,07,28,03,27,16.90
2016,07,28,03,28,16.90
2016,07,28,03,29,16.90
2016,07,28,03,30,16.90
2016,07,28,03,31,16.80
2016,07,28,03,32,16.80
2016,07,28,03,33,16.80
2016,07,28,03,34,16.80
2016,07,28,03,35,16.80
2016,07,28,03,36,16.80
2016,07,28,03,37,16.80
2016,07,28,03,38,16.70
2016,07,28,03,39,16.70
2016,07,28,03,40,16.70
2016,07,28,03,41,16.70
2016,07,28,03,42,16.70
2016,07,28,03,43,16.70
2016,07,28,03,44,16.70
2016,07,28,03,45,16.70
2016,07,28,03,46,16.70
2016,07,28,03,47,16.60
2016,07,28,03,48,16.60
2016,07,28,03,49,16.60
2016,07,28,03,50,16.60
2016,07,28,03,51,16.60
2016,07,28,03,52,16.60
2016,07,28,03,53,16.60
2016,07,28,03,54,16.60
2016,07,28,03,55,16.60
2016,07,28,03,56,16.60
2016,07,28,03,57,16.60
2016,07,28,03,58,16.60
2016,07,28,03,59,16.60
2016,07,28,04,00,16.60
2016,07,28,04,01,16.50
2016,07,28,04,02,16.50
2016,07,28,04,03,16.50
2016,07,28,04,04,16.40
2016,07,28,04,05,16.40
2016,07,28,04,06,16.40
2016,07,28,04,07,16.40
2016,07,28,04,08,16.40
2016,07,28,04,09,16.40
2016,07,28,04,10,16.40
2016,07,28,04,11,16.40
2016,07,28,04,12,16.40
2016,07,28,04,13,16.40
2016,07,28,04,14,16.40
2016,07,28,04,15,16.40
2016,07,28,04,16,16.40
2016,07,28,04,17,16.30
2016,07,28,04,18,16.30
2016,07,28,04,19,16.30
2016,07,28,04,20,16.30
2016,07,28,04,21,16.30
2016,07,28,04,22,16.30
2016,07,28,04,23,16.30
2016,07,28,04,24,16.30
2016,07,28,04,25,16.30
2016,07,28,04,26,16.30
2016,07,28,04,27,16.30
2016,07,28,04,28,16.30
2016,07,28,04,29,16.30
2016,07,28,04,30,16.30
2016,07,28,04,31,16.30
2016,07,28,04,32,16.30
2016,07,28,04,33,16.30
2016,07,28,04,34,16.30
2016,07,28,04,35,16.30
2016,07,28,04,36,16.30
2016,07,28,04,37,16.30
2016,07,28,04,38,16.20
2016,07,28,04,39,16.20
2016,07,28,04,40,16.20
2016,07,28,04,41,16.20
2016,07,28,04,42,16.20
2016,07,28,04,43,16.20
2016,07,28,04,44,16.20
2016,07,28,04,45,16.20
2016,07,28,04,46,16.20
2016,07,28,04,47,16.10
2016,07,28,04,48,16.10
2016,07,28,04,49,16.10
2016,07,28,04,50,16.10
2016,07,28,04,51,16.10
2016,07,28,04,52,16.10
2016,07,28,04,53,16.10
2016,07,28,04,54,16.10
2016,07,28,04,55,16.10
2016,07,28,04,56,16.10
2016,07,28,04,57,16.00
2016,07,28,04,58,16.10
2016,07,28,04,59,16.00
2016,07,28,05,00,16.00
2016,07,28,05,01,16.00
2016,07,28,05,02,16.00
2016,07,28,05,03,16.00
2016,07,28,05,04,15.90
2016,07,28,05,05,15.90
2016,07,28,05,06,15.90
2016,07,28,05,07,15.90
2016,07,28,05,08,15.80
2016,07,28,05,09,15.80
2016,07,28,05,10,15.80
2016,07,28,05,11,15.80
2016,07,28,05,12,15.80
2016,07,28,05,13,15.80
2016,07,28,05,14,15.80
2016,07,28,05,15,15.80
2016,07,28,05,16,15.80
2016,07,28,05,17,15.70
2016,07,28,05,18,15.70
2016,07,28,05,19,15.70
2016,07,28,05,20,15.70
2016,07,28,05,21,15.60
2016,07,28,05,22,15.60
2016,07,28,05,23,15.60
2016,07,28,05,24,15.60
2016,07,28,05,25,15.60
2016,07,28,05,26,15.50
2016,07,28,05,27,15.50
2016,07,28,05,28,15.50
2016,07,28,05,29,15.50
2016,07,28,05,30,15.50
2016,07,28,05,31,15.40
2016,07,28,05,32,15.40
2016,07,28,05,33,15.40
2016,07,28,05,34,15.40
2016,07,28,05,35,15.40
2016,07,28,05,36,15.40
2016,07,28,05,37,15.40
2016,07,28,05,38,15.40
2016,07,28,05,39,15.40
2016,07,28,05,40,15.40
2016,07,28,05,41,15.40
2016,07,28,05,42,15.40
2016,07,28,05,43,15.40
2016,07,28,05,44,15.40
2016,07,28,05,45,15.40
2016,07,28,05,46,15.40
2016,07,28,05,47,15.40
2016,07,28,05,48,15.40
2016,07,28,05,49,15.40
2016,07,28,05,50,15.40
2016,07,28,05,51,15.40
2016,07,28,05,52,15.40
2016,07,28,05,53,15.30
2016,07,28,05,54,15.30
2016,07,28,05,55,15.30
2016,07,28,05,56,15.30
2016,07,28,05,57,15.30
2016,07,28,05,58,15.30
2016,07,28,05,59,15.30
2016,07,28,06,00,15.20
2016,07,28,06,01,15.20
2016,07,28,06,02,15.20
2016,07,28,06,03,15.20
2016,07,28,06,04,15.20
2016,07,28,06,05,15.10
2016,07,28,06,06,15.10
2016,07,28,06,07,15.10
2016,07,28,06,08,15.10
2016,07,28,06,09,15.10
2016,07,28,06,10,15.10
2016,07,28,06,11,15.10
2016,07,28,06,12,15.10
2016,07,28,06,13,15.10
2016,07,28,06,14,15.10
2016,07,28,06,15,15.10
2016,07,28,06,16,15.10
2016,07,28,06,17,15.10
2016,07,28,06,18,15.10
2016,07,28,06,19,15.20
2016,07,28,06,20,15.20
2016,07,28,06,21,15.20
2016,07,28,06,22,15.20
2016,07,28,06,23,15.30
2016,07,28,06,24,15.30
2016,07,28,06,25,15.30
2016,07,28,06,26,15.30
2016,07,28,06,27,15.30
2016,07,28,06,28,15.40
2016,07,28,06,29,15.40
2016,07,28,06,30,15.40
2016,07,28,06,31,15.40
2016,07,28,06,32,15.50
2016,07,28,06,33,15.50
2016,07,28,06,34,15.60
2016,07,28,06,35,15.70
2016,07,28,06,36,15.70
2016,07,28,06,37,15.80
2016,07,28,06,38,15.80
2016,07,28,06,39,15.80
2016,07,28,06,40,15.80
2016,07,28,06,41,15.90
2016,07,28,06,42,15.90
2016,07,28,06,43,15.90
2016,07,28,06,44,15.90
2016,07,28,06,45,16.00
2016,07,28,06,46,16.00
2016,07,28,06,47,16.00
2016,07,28,06,48,16.10
2016,07,28,06,49,16.10
2016,07,28,06,50,16.10
2016,07,28,06,51,16.10
2016,07,28,06,52,16.10
2016,07,28,06,53,16.10
2016,07,28,06,54,16.20
2016,07,28,06,55,16.20
2016,07,28,06,56,16.20
2016,07,28,06,57,16.20
2016,07,28,06,58,16.20
2016,07,28,06,59,16.20
2016,07,28,07,00,16.20
2016,07,28,07,01,16.30
2016,07,28,07,02,16.30
2016,07,28,07,03,16.30
2016,07,28,07,04,16.30
2016,07,28,07,05,16.30
2016,07,28,07,06,16.40
2016,07,28,07,07,16.40
2016,07,28,07,08,16.40
2016,07,28,07,09,16.40
2016,07,28,07,10,16.40
2016,07,28,07,11,16.50
2016,07,28,07,12,16.50
2016,07,28,07,13,16.50
2016,07,28,07,14,16.50
2016,07,28,07,15,16.60
2016,07,28,07,16,16.60
2016,07,28,07,17,16.60
2016,07,28,07,18,16.70
2016,07,28,07,19,16.70
2016,07,28,07,20,16.80
2016,07,28,07,21,16.80
2016,07,28,07,22,16.80
2016,07,28,07,23,16.90
2016,07,28,07,24,16.90
2016,07,28,07,25,17.00
2016,07,28,07,26,17.00
2016,07,28,07,27,17.00
2016,07,28,07,28,17.10
2016,07,28,07,29,17.10
2016,07,28,07,30,17.20
2016,07,28,07,31,17.20
2016,07,28,07,32,17.20
2016,07,28,07,33,17.20
2016,07,28,07,34,17.20
2016,07,28,07,35,17.20
2016,07,28,07,36,17.30
2016,07,28,07,37,17.30
2016,07,28,07,38,17.30
2016,07,28,07,39,17.30
2016,07,28,07,40,17.30
2016,07,28,07,41,17.40
2016,07,28,07,42,17.40
2016,07,28,07,43,17.40
2016,07,28,07,44,17.40
2016,07,28,07,45,17.50
2016,07,28,07,46,17.50
2016,07,28,07,47,17.50
2016,07,28,07,48,17.50
2016,07,28,07,49,17.60
2016,07,28,07,50,17.60
2016,07,28,07,51,17.60
2016,07,28,07,52,17.60
2016,07,28,07,53,17.60
2016,07,28,07,54,17.70
2016,07,28,07,55,17.70
2016,07,28,07,56,17.70
2016,07,28,07,57,17.70
2016,07,28,07,58,17.80
2016,07,28,07,59,17.80
2016,07,28,08,00,17.80
2016,07,28,08,01,17.90
2016,07,28,08,02,17.90
2016,07,28,08,03,18.00
2016,07,28,08,04,18.00
2016,07,28,08,05,18.10
2016,07,28,08,06,18.10
2016,07,28,08,07,18.10
2016,07,28,08,08,18.20
2016,07,28,08,09,18.20
2016,07,28,08,10,18.20
2016,07,28,08,11,18.30
2016,07,28,08,12,18.30
2016,07,28,08,13,18.30
2016,07,28,08,14,18.30
2016,07,28,08,15,18.40
2016,07,28,08,16,18.40
2016,07,28,08,17,18.40
2016,07,28,08,18,18.30
2016,07,28,08,19,18.30
2016,07,28,08,20,18.30
2016,07,28,08,21,18.40
2016,07,28,08,22,18.40
2016,07,28,08,23,18.40
2016,07,28,08,24,18.40
2016,07,28,08,25,18.40
2016,07,28,08,26,18.30
2016,07,28,08,27,18.30
2016,07,28,08,28,18.30
2016,07,28,08,29,18.30
2016,07,28,08,30,18.30
2016,07,28,08,31,18.30
2016,07,28,08,32,18.30
2016,07,28,08,33,18.30
2016,07,28,08,34,18.40
2016,07,28,08,35,18.40
2016,07,28,08,36,18.50
2016,07,28,08,37,18.60
2016,07,28,08,38,18.70
2016,07,28,08,39,18.70
2016,07,28,08,40,18.80
2016,07,28,08,41,18.80
2016,07,28,08,42,18.80
2016,07,28,08,43,18.80
2016,07,28,08,44,18.90
2016,07,28,08,45,18.90
2016,07,28,08,46,18.90
2016,07,28,08,47,18.90
2016,07,28,08,48,18.90
2016,07,28,08,49,18.90
2016,07,28,08,50,18.90
2016,07,28,08,51,18.80
2016,07,28,08,52,18.90
2016,07,28,08,53,18.90
2016,07,28,08,54,18.90
2016,07,28,08,55,19.00
2016,07,28,08,56,19.00
2016,07,28,08,57,19.00
2016,07,28,08,58,18.90
2016,07,28,08,59,19.00
2016,07,28,09,00,19.00
2016,07,28,09,01,19.00
2016,07,28,09,02,19.00
2016,07,28,09,03,19.10
2016,07,28,09,04,19.10
2016,07,28,09,05,19.20
2016,07,28,09,06,19.20
2016,07,28,09,07,19.20
2016,07,28,09,08,19.20
2016,07,28,09,09,19.30
2016,07,28,09,10,19.30
2016,07,28,09,11,19.30
2016,07,28,09,12,19.30
2016,07,28,09,13,19.30
2016,07,28,09,14,19.30
2016,07,28,09,15,19.20
2016,07,28,09,16,19.30
2016,07,28,09,17,19.30
2016,07,28,09,18,19.30
2016,07,28,09,19,19.40
2016,07,28,09,20,19.40
2016,07,28,09,21,19.50
2016,07,28,09,22,19.60
2016,07,28,09,23,19.60
2016,07,28,09,24,19.70
2016,07,28,09,25,19.70
2016,07,28,09,26,19.80
2016,07,28,09,27,19.80
2016,07,28,09,28,19.80
2016,07,28,09,29,19.90
2016,07,28,09,30,19.90
2016,07,28,09,31,20.00
2016,07,28,09,32,20.10
2016,07,28,09,33,20.20
2016,07,28,09,34,20.30
2016,07,28,09,35,20.30
2016,07,28,09,36,20.40
2016,07,28,09,37,20.50
2016,07,28,09,38,20.50
2016,07,28,09,39,20.50
2016,07,28,09,40,20.60
2016,07,28,09,41,20.60
2016,07,28,09,42,20.60
2016,07,28,09,43,20.60
2016,07,28,09,44,20.60
2016,07,28,09,45,20.70
2016,07,28,09,46,20.70
2016,07,28,09,47,20.70
2016,07,28,09,48,20.80
2016,07,28,09,49,20.90
2016,07,28,09,50,21.00
2016,07,28,09,51,21.00
2016,07,28,09,52,21.10
2016,07,28,09,53,21.10
2016,07,28,09,54,21.10
2016,07,28,09,55,21.20
2016,07,28,09,56,21.20
2016,07,28,09,57,21.30
2016,07,28,09,58,21.40
2016,07,28,09,59,21.50
2016,07,28,10,00,21.40
2016,07,28,10,01,21.40
2016,07,28,10,02,21.40
2016,07,28,10,03,21.30
2016,07,28,10,04,21.30
2016,07,28,10,05,21.20
2016,07,28,10,06,21.10
2016,07,28,10,07,21.00
2016,07,28,10,08,20.90
2016,07,28,10,09,20.90
2016,07,28,10,10,20.90
2016,07,28,10,11,20.90
2016,07,28,10,12,20.90
2016,07,28,10,13,20.90
2016,07,28,10,14,20.90
2016,07,28,10,15,21.00
2016,07,28,10,16,21.00
2016,07,28,10,17,21.00
2016,07,28,10,18,21.10
2016,07,28,10,19,21.20
2016,07,28,10,20,21.30
2016,07,28,10,21,21.40
2016,07,28,10,22,21.60
2016,07,28,10,23,21.70
2016,07,28,10,24,21.70
2016,07,28,10,25,21.80
2016,07,28,10,26,21.90
2016,07,28,10,27,22.00
2016,07,28,10,28,22.10
2016,07,28,10,29,22.20
2016,07,28,10,30,22.20
2016,07,28,10,31,22.10
2016,07,28,10,32,22.00
2016,07,28,10,33,22.00
2016,07,28,10,34,21.90
2016,07,28,10,35,22.00
2016,07,28,10,36,22.00
2016,07,28,10,37,22.00
2016,07,28,10,38,21.90
2016,07,28,10,39,21.80
2016,07,28,10,40,21.80
2016,07,28,10,41,21.80
2016,07,28,10,42,21.80
2016,07,28,10,43,21.80
2016,07,28,10,44,21.80
2016,07,28,10,45,21.70
2016,07,28,10,46,21.70
2016,07,28,10,47,21.70
2016,07,28,10,48,21.70
2016,07,28,10,49,21.60
2016,07,28,10,50,21.60
2016,07,28,10,51,21.70
2016,07,28,10,52,21.60
2016,07,28,10,53,21.70
2016,07,28,10,54,21.70
2016,07,28,10,55,21.70
2016,07,28,10,56,21.80
2016,07,28,10,57,21.80
2016,07,28,10,58,21.80
2016,07,28,10,59,21.90
2016,07,28,11,00,22.00
2016,07,28,11,01,22.10
2016,07,28,11,02,22.10
2016,07,28,11,03,22.10
2016,07,28,11,04,22.20
2016,07,28,11,05,22.20
2016,07,28,11,06,22.30
2016,07,28,11,07,22.40
2016,07,28,11,08,22.30
2016,07,28,11,09,22.30
2016,07,28,11,10,22.40
2016,07,28,11,11,22.40
2016,07,28,11,12,22.40
2016,07,28,11,13,22.40
2016,07,28,11,14,22.50
2016,07,28,11,15,22.50
2016,07,28,11,16,22.60
2016,07,28,11,17,22.70
2016,07,28,11,18,22.70
2016,07,28,11,19,22.60
2016,07,28,11,20,22.60
2016,07,28,11,21,22.60
2016,07,28,11,22,22.60
2016,07,28,11,23,22.60
2016,07,28,11,24,22.60
2016,07,28,11,25,22.70
2016,07,28,11,26,22.70
2016,07,28,11,27,22.70
2016,07,28,11,28,22.80
2016,07,28,11,29,22.80
2016,07,28,11,30,22.70
2016,07,28,11,31,22.70
2016,07,28,11,32,22.70
2016,07,28,11,33,22.70
2016,07,28,11,34,22.70
2016,07,28,11,35,22.70
2016,07,28,11,36,22.70
2016,07,28,11,37,22.70
2016,07,28,11,38,22.80
2016,07,28,11,39,22.90
2016,07,28,11,40,23.00
2016,07,28,11,41,23.00
2016,07,28,11,42,22.90
2016,07,28,11,43,22.90
2016,07,28,11,44,22.80
2016,07,28,11,45,22.70
2016,07,28,11,46,22.70
2016,07,28,11,47,22.70
2016,07,28,11,48,22.60
2016,07,28,11,49,22.60
2016,07,28,11,50,22.60
2016,07,28,11,51,22.60
2016,07,28,11,52,22.50
2016,07,28,11,53,22.50
2016,07,28,11,54,22.50
2016,07,28,11,55,22.50
2016,07,28,11,56,22.40
2016,07,28,11,57,22.40
2016,07,28,11,58,22.40
2016,07,28,11,59,22.40
2016,07,28,12,00,22.40
2016,07,28,12,01,22.40
2016,07,28,12,02,22.40
2016,07,28,12,03,22.40
2016,07,28,12,04,22.50
2016,07,28,12,05,22.50
2016,07,28,12,06,22.60
2016,07,28,12,07,22.60
2016,07,28,12,08,22.60
2016,07,28,12,09,22.60
2016,07,28,12,10,22.60
2016,07,28,12,11,22.60
2016,07,28,12,12,22.70
2016,07,28,12,13,22.70
2016,07,28,12,14,22.70
2016,07,28,12,15,22.80
2016,07,28,12,16,22.80
2016,07,28,12,17,22.90
2016,07,28,12,18,22.90
2016,07,28,12,19,22.90
2016,07,28,12,20,22.90
2016,07,28,12,21,22.90
2016,07,28,12,22,22.90
2016,07,28,12,23,22.90
2016,07,28,12,24,22.90
2016,07,28,12,25,22.90
2016,07,28,12,26,22.80
2016,07,28,12,27,22.80
2016,07,28,12,28,22.90
2016,07,28,12,29,23.00
2016,07,28,12,30,23.10
2016,07,28,12,31,23.20
2016,07,28,12,32,23.30
2016,07,28,12,33,23.40
2016,07,28,12,34,23.50
2016,07,28,12,35,23.60
2016,07,28,12,36,23.60
2016,07,28,12,37,23.50
2016,07,28,12,38,23.40
2016,07,28,12,39,23.40
2016,07,28,12,40,23.40
2016,07,28,12,41,23.40
2016,07,28,12,42,23.40
2016,07,28,12,43,23.40
2016,07,28,12,44,23.40
2016,07,28,12,45,23.40
2016,07,28,12,46,23.50
2016,07,28,12,47,23.50
2016,07,28,12,48,23.60
2016,07,28,12,49,23.70
2016,07,28,12,50,23.80
2016,07,28,12,51,23.90
2016,07,28,12,52,24.10
2016,07,28,12,53,24.10
2016,07,28,12,54,24.20
2016,07,28,12,55,24.30
2016,07,28,12,56,24.30
2016,07,28,12,57,24.40
2016,07,28,12,58,24.50
2016,07,28,12,59,24.60
2016,07,28,13,00,24.70
2016,07,28,13,01,24.70
2016,07,28,13,02,24.70
2016,07,28,13,03,24.60
2016,07,28,13,04,24.60
2016,07,28,13,05,24.60
2016,07,28,13,06,24.60
2016,07,28,13,07,24.60
2016,07,28,13,08,24.60
2016,07,28,13,09,24.70
2016,07,28,13,10,24.70
2016,07,28,13,11,24.80
2016,07,28,13,12,24.90
2016,07,28,13,13,25.00
2016,07,28,13,14,25.00
2016,07,28,13,15,25.00
2016,07,28,13,16,24.90
2016,07,28,13,17,24.80
2016,07,28,13,18,24.80
2016,07,28,13,19,24.80
2016,07,28,13,20,24.90
2016,07,28,13,21,24.90
2016,07,28,13,22,24.80
2016,07,28,13,23,24.80
2016,07,28,13,24,24.90
2016,07,28,13,25,24.90
2016,07,28,13,26,24.80
2016,07,28,13,27,24.80
2016,07,28,13,28,24.60
2016,07,28,13,29,24.50
2016,07,28,13,30,24.50
2016,07,28,13,31,24.40
2016,07,28,13,32,24.30
2016,07,28,13,33,24.30
2016,07,28,13,34,24.30
2016,07,28,13,35,24.30
2016,07,28,13,36,24.20
2016,07,28,13,37,24.20
2016,07,28,13,38,24.20
2016,07,28,13,39,24.20
2016,07,28,13,40,24.20
2016,07,28,13,41,24.30
2016,07,28,13,42,24.30
2016,07,28,13,43,24.40
2016,07,28,13,44,24.50
2016,07,28,13,45,24.60
2016,07,28,13,46,24.70
2016,07,28,13,47,24.70
2016,07,28,13,48,24.70
2016,07,28,13,49,24.70
2016,07,28,13,50,24.70
2016,07,28,13,51,24.70
2016,07,28,13,52,24.70
2016,07,28,13,53,24.80
2016,07,28,13,54,24.90
2016,07,28,13,55,25.00
2016,07,28,13,56,25.00
2016,07,28,13,57,25.10
2016,07,28,13,58,25.20
2016,07,28,13,59,25.30
2016,07,28,14,00,25.30
2016,07,28,14,01,25.40
2016,07,28,14,02,25.50
2016,07,28,14,03,25.60
2016,07,28,14,04,25.70
2016,07,28,14,05,25.70
2016,07,28,14,06,25.80
2016,07,28,14,07,25.80
2016,07,28,14,08,25.90
2016,07,28,14,09,25.90
2016,07,28,14,10,25.90
2016,07,28,14,11,26.00
2016,07,28,14,12,26.00
2016,07,28,14,13,26.00
2016,07,28,14,14,26.00
2016,07,28,14,15,26.00
2016,07,28,14,16,26.10
2016,07,28,14,17,26.00
2016,07,28,14,18,26.00
2016,07,28,14,19,25.90
2016,07,28,14,20,26.00
2016,07,28,14,21,26.00
2016,07,28,14,22,26.00
2016,07,28,14,23,26.10
2016,07,28,14,24,26.10
2016,07,28,14,25,26.10
2016,07,28,14,26,26.10
2016,07,28,14,27,26.10
2016,07,28,14,28,26.10
2016,07,28,14,29,26.20
2016,07,28,14,30,26.10
2016,07,28,14,31,26.20
2016,07,28,14,32,26.20
2016,07,28,14,33,26.40
2016,07,28,14,34,26.50
2016,07,28,14,35,26.60
2016,07,28,14,36,26.60
2016,07,28,14,37,26.60
2016,07,28,14,38,26.60
2016,07,28,14,39,26.50
2016,07,28,14,40,26.40
2016,07,28,14,41,26.40
2016,07,28,14,42,26.40
2016,07,28,14,43,26.30
2016,07,28,14,44,26.30
2016,07,28,14,45,26.30
2016,07,28,14,46,26.30
2016,07,28,14,47,26.20
2016,07,28,14,48,26.20
2016,07,28,14,49,26.20
2016,07,28,14,50,26.20
2016,07,28,14,51,26.30
2016,07,28,14,52,26.30
2016,07,28,14,53,26.40
2016,07,28,14,54,26.50
2016,07,28,14,55,26.60
2016,07,28,14,56,26.70
2016,07,28,14,57,26.80
2016,07,28,14,58,26.90
2016,07,28,14,59,27.00
2016,07,28,15,00,27.10
2016,07,28,15,01,27.20
2016,07,28,15,02,27.20
2016,07,28,15,03,27.30
2016,07,28,15,04,27.30
2016,07,28,15,05,27.30
2016,07,28,15,06,27.30
2016,07,28,15,07,27.30
2016,07,28,15,08,27.20
2016,07,28,15,09,27.20
2016,07,28,15,10,27.30
2016,07,28,15,11,27.30
2016,07,28,15,12,27.30
2016,07,28,15,13,27.40
2016,07,28,15,14,27.40
2016,07,28,15,15,27.50
2016,07,28,15,16,27.60
2016,07,28,15,17,27.80
2016,07,28,15,18,27.90
2016,07,28,15,19,28.00
2016,07,28,15,20,28.10
2016,07,28,15,21,28.10
2016,07,28,15,22,28.20
2016,07,28,15,23,28.10
2016,07,28,15,24,28.10
2016,07,28,15,25,27.90
2016,07,28,15,26,27.80
2016,07,28,15,27,27.70
2016,07,28,15,28,27.60
2016,07,28,15,29,27.60
2016,07,28,15,30,27.60
2016,07,28,15,31,27.60
2016,07,28,15,32,27.60
2016,07,28,15,33,27.70
2016,07,28,15,34,27.60
2016,07,28,15,35,27.60
2016,07,28,15,36,27.60
2016,07,28,15,37,27.50
2016,07,28,15,38,27.50
2016,07,28,15,39,27.60
2016,07,28,15,40,27.70
2016,07,28,15,41,27.70
2016,07,28,15,42,27.80
2016,07,28,15,43,27.80
2016,07,28,15,44,27.80
2016,07,28,15,45,28.00
2016,07,28,15,46,28.10
2016,07,28,15,47,28.20
2016,07,28,15,48,28.20
2016,07,28,15,49,28.30
2016,07,28,15,50,28.30
2016,07,28,15,51,28.30
2016,07,28,15,52,28.20
2016,07,28,15,53,28.20
2016,07,28,15,54,28.10
2016,07,28,15,55,28.10
2016,07,28,15,56,28.10
2016,07,28,15,57,28.10
2016,07,28,15,58,28.20
2016,07,28,15,59,28.10
2016,07,28,16,00,28.00
2016,07,28,16,01,27.90
2016,07,28,16,02,27.80
2016,07,28,16,03,27.80
2016,07,28,16,04,27.90
2016,07,28,16,05,28.00
2016,07,28,16,06,28.10
2016,07,28,16,07,28.20
2016,07,28,16,08,28.40
2016,07,28,16,09,28.40
2016,07,28,16,10,28.50
2016,07,28,16,11,28.60
2016,07,28,16,12,28.60
2016,07,28,16,13,28.70
2016,07,28,16,14,28.70
2016,07,28,16,15,28.80
2016,07,28,16,16,28.80
2016,07,28,16,17,28.80
2016,07,28,16,18,28.80
2016,07,28,16,19,28.80
2016,07,28,16,20,28.70
2016,07,28,16,21,28.60
2016,07,28,16,22,28.50
2016,07,28,16,23,28.40
2016,07,28,16,24,28.30
2016,07,28,16,25,28.30
2016,07,28,16,26,28.20
2016,07,28,16,27,28.20
2016,07,28,16,28,28.20
2016,07,28,16,29,28.30
2016,07,28,16,30,28.30
2016,07,28,16,31,28.20
2016,07,28,16,32,28.10
2016,07,28,16,33,28.00
2016,07,28,16,34,28.00
2016,07,28,16,35,28.00
2016,07,28,16,36,28.00
2016,07,28,16,37,28.10
2016,07,28,16,38,28.20
2016,07,28,16,39,28.30
2016,07,28,16,40,28.30
2016,07,28,16,41,28.30
2016,07,28,16,42,28.40
2016,07,28,16,43,28.40
2016,07,28,16,44,28.40
2016,07,28,16,45,28.30
2016,07,28,16,46,28.30
2016,07,28,16,47,28.30
2016,07,28,16,48,28.40
2016,07,28,16,49,28.40
2016,07,28,16,50,28.40
2016,07,28,16,51,28.40
2016,07,28,16,52,28.50
2016,07,28,16,53,28.50
2016,07,28,16,54,28.50
2016,07,28,16,55,28.40
2016,07,28,16,56,28.30
2016,07,28,16,57,28.30
2016,07,28,16,58,28.20
2016,07,28,16,59,28.20
2016,07,28,17,00,28.10
2016,07,28,17,01,28.10
2016,07,28,17,02,28.10
2016,07,28,17,03,28.10
2016,07,28,17,04,28.10
2016,07,28,17,05,28.10
2016,07,28,17,06,28.10
2016,07,28,17,07,28.10
2016,07,28,17,08,28.10
2016,07,28,17,09,28.10
2016,07,28,17,10,28.10
2016,07,28,17,11,28.10
2016,07,28,17,12,28.20
2016,07,28,17,13,28.20
2016,07,28,17,14,28.30
2016,07,28,17,15,28.30
2016,07,28,17,16,28.30
2016,07,28,17,17,28.30
2016,07,28,17,18,28.30
2016,07,28,17,19,28.30